TimeEST,TemperatureF,Dew PointF,Humidity,Sea Level PressureIn,VisibilityMPH,Wind Direction,Wind SpeedMPH,Gust SpeedMPH,PrecipitationIn,Events,Conditions,WindDirDegrees,DateUTC
12:54 AM,26.1,5.0,41,30.35,10.0,SE,10.4,-,N/A,,Overcast,140,2013-02-08 05:54:00
1:54 AM,26.1,5.0,41,30.33,10.0,SE,12.7,-,N/A,,Overcast,140,2013-02-08 06:54:00
2:54 AM,26.1,5.0,41,30.30,10.0,SE,11.5,-,N/A,,Overcast,130,2013-02-08 07:54:00
3:54 AM,25.0,6.1,45,30.26,10.0,ESE,5.8,-,N/A,,Overcast,120,2013-02-08 08:54:00
4:54 AM,26.1,10.0,51,30.24,10.0,ESE,13.8,19.6,N/A,,Overcast,120,2013-02-08 09:54:00
5:54 AM,26.1,15.1,63,30.23,10.0,ESE,15.0,23.0,N/A,,Overcast,120,2013-02-08 10:54:00
6:54 AM,27.0,17.1,66,30.21,10.0,SE,13.8,25.3,N/A,,Overcast,130,2013-02-08 11:54:00
7:54 AM,27.0,18.0,69,30.20,10.0,SE,19.6,29.9,N/A,,Overcast,130,2013-02-08 12:54:00
8:54 AM,28.0,19.0,69,30.16,10.0,ESE,19.6,27.6,N/A,,Overcast,120,2013-02-08 13:54:00
9:54 AM,28.9,19.0,67,30.14,10.0,SE,21.9,33.4,N/A,,Overcast,130,2013-02-08 14:54:00
10:54 AM,28.9,18.0,64,30.12,9.0,ESE,21.9,33.4,N/A,,Overcast,120,2013-02-08 15:54:00
11:54 AM,28.9,17.1,61,30.07,10.0,Variable,5.8,20.7,N/A,,Overcast,0,2013-02-08 16:54:00
12:54 PM,30.0,17.1,59,30.03,10.0,ESE,13.8,28.8,N/A,,Overcast,120,2013-02-08 17:54:00
1:54 PM,30.0,17.1,59,29.97,10.0,ESE,15.0,32.2,N/A,,Overcast,120,2013-02-08 18:54:00
2:54 PM,30.0,18.0,61,29.93,8.0,East,18.4,39.1,N/A,,Overcast,100,2013-02-08 19:54:00
3:14 PM,28.4,17.6,64,29.88,2.0,East,18.4,29.9,0.00,Snow,Light Snow,100,2013-02-08 20:14:00
3:26 PM,28.4,17.6,64,29.87,1.8,East,18.4,34.5,0.00,Snow,Light Snow,80,2013-02-08 20:26:00
3:39 PM,28.4,17.6,64,29.86,2.5,East,18.4,31.1,0.00,Snow,Light Snow,80,2013-02-08 20:39:00
3:54 PM,28.0,17.1,63,29.88,2.5,East,17.3,32.2,0.00,Snow,Light Snow,90,2013-02-08 20:54:00
4:09 PM,26.6,17.6,69,29.85,1.5,East,15.0,29.9,0.00,Snow,Light Snow,90,2013-02-08 21:09:00
4:32 PM,26.6,17.6,69,29.84,1.8,East,16.1,35.7,0.00,Snow,Light Snow,80,2013-02-08 21:32:00
4:54 PM,27.0,17.1,66,29.86,2.0,East,21.9,32.2,0.00,Snow,Light Snow,90,2013-02-08 21:54:00
5:01 PM,26.6,15.8,64,29.83,2.0,East,16.1,34.5,0.00,Snow,Light Snow,80,2013-02-08 22:01:00
5:11 PM,26.6,17.6,69,29.83,4.0,ENE,13.8,25.3,0.00,Snow,Light Snow,70,2013-02-08 22:11:00
5:54 PM,26.1,16.0,66,29.86,3.0,East,12.7,21.9,0.00,Snow,Light Snow,80,2013-02-08 22:54:00
6:10 PM,24.8,17.6,74,29.83,2.5,Variable,5.8,-,0.00,Snow,Light Snow,0,2013-02-08 23:10:00
6:21 PM,24.8,17.6,74,29.82,1.8,ENE,8.1,-,0.00,Snow,Light Snow,70,2013-02-08 23:21:00
6:54 PM,24.1,16.0,71,29.85,1.8,NE,8.1,19.6,0.00,Snow,Light Snow,40,2013-02-08 23:54:00
7:07 PM,24.8,15.8,69,29.82,2.0,NE,9.2,-,0.00,Snow,Light Snow,50,2013-02-09 00:07:00
7:26 PM,24.8,15.8,69,29.81,1.8,NE,9.2,17.3,0.00,Snow,Light Snow,50,2013-02-09 00:26:00
7:54 PM,24.1,14.0,65,29.82,1.5,East,20.7,29.9,0.00,Snow,Light Snow,90,2013-02-09 00:54:00
8:54 PM,24.1,15.1,69,29.81,1.8,NE,11.5,21.9,0.01,Snow,Light Snow,40,2013-02-09 01:54:00
9:50 PM,23.0,17.6,80,29.77,0.8,NW,9.2,17.3,0.00,Snow,Light Snow,320,2013-02-09 02:50:00
9:54 PM,21.9,17.1,82,29.80,0.8,NW,5.8,17.3,0.01,Snow,Light Snow,320,2013-02-09 02:54:00
10:06 PM,21.2,17.6,86,29.76,0.5,NNW,5.8,-,0.01,Fog-Snow,Snow,330,2013-02-09 03:06:00
10:54 PM,21.9,17.1,82,29.80,0.5,North,5.8,-,0.04,Snow,Snow,350,2013-02-09 03:54:00
11:54 PM,21.0,17.1,85,29.81,0.5,North,9.2,-,0.04,Fog-Snow,Snow,360,2013-02-09 04:54:00